This demonstration page uses our WeatherBlox Daily Observations layout. Learn more.

Left ArrowRight Arrow

Hourly Observations for January 31, 2019

Temp ( °F °C ) Dew Point ( °F °C ) Humidity (%) Winds ( mph kmh ) Pressure ( in mb ) Visibility ( mi km ) Precip ( " mm )
12:53 am 00:53 Clear 29 -1.7 19 -7.2 66 66 Calm 30.34 1027 10 16 0.00 0.00
1:53 am 01:53 Clear 28 -2.2 18 -7.8 66 66 Calm 30.33 1027 10 16 0.00 0.00
2:53 am 02:53 Partly Cloudy 27 -2.8 20 -6.7 75 75 Calm 30.34 1027 10 16 0.00 0.00
3:53 am 03:53 Clear 26 -3.3 21 -6.1 81 81 Calm 30.34 1027 10 16 0.00 0.00
4:53 am 04:53 Mostly Cloudy 25 -3.9 22 -5.6 88 88 Calm 30.34 1027 10 16 0.00 0.00
5:53 am 05:53 Mostly Clear 27 -2.8 22 -5.6 81 81 Calm 30.35 1028 10 16 0.00 0.00
6:53 am 06:53 Cloudy 26 -3.3 22 -5.6 84 84 Calm 30.37 1029 10 16 0.00 0.00
7:53 am 07:53 Cloudy 28 -2.2 23 -5 81 81 Calm 30.39 1029 10 16 0.00 0.00
8:53 am 08:53 Sunny 31 -0.6 19 -7.2 61 61 Calm 30.41 1030 10 16 0.00 0.00
9:53 am 09:53 Sunny 35 1.7 17 -8.3 48 48 Calm 30.42 1030 10 16 0.00 0.00
10:53 am 10:53 Sunny 39 3.9 18 -7.8 43 43 Calm 30.44 1031 10 16 0.00 0.00
11:53 am 11:53 Sunny 43 6.1 20 -6.7 40 40 Calm 30.43 1030 10 16 0.00 0.00
12:53 pm 12:53 Sunny 48 8.9 21 -6.1 34 34 W 8 13 30.40 1029 10 16 0.00 0.00
1:53 pm 13:53 Sunny 49 9.4 21 -6.1 33 33 NNW 7 11 30.37 1028 10 16 0.00 0.00
2:53 pm 14:53 Sunny 50 10 21 -6.1 32 32 SW 8 13 30.35 1028 10 16 0.00 0.00
3:53 pm 15:53 Sunny 51 10.6 20 -6.7 29 29 Calm 30.34 1027 10 16 0.00 0.00
4:53 pm 16:53 Sunny 51 10.6 21 -6.1 31 31 Calm 30.33 1027 10 16 0.00 0.00
5:53 pm 17:53 Sunny 50 10 21 -6.1 32 32 E 3 6 30.32 1027 10 16 0.00 0.00
6:53 pm 18:53 Clear 43 6.1 24 -4.4 47 47 Calm 30.33 1027 10 16 0.00 0.00
7:53 pm 19:53 Clear 39 3.9 26 -3.3 60 60 Calm 30.34 1028 10 16 0.00 0.00
8:53 pm 20:53 Clear 36 2.2 27 -2.8 70 70 Calm 30.35 1028 10 16 0.00 0.00
9:53 pm 21:53 Clear 35 1.7 27 -2.8 72 72 Calm 30.35 1028 10 16 0.00 0.00
10:53 pm 22:53 Clear 33 0.6 27 -2.8 78 78 Calm 30.36 1028 10 16 0.00 0.00
11:53 pm 23:53 Clear 32 0 27 -2.8 82 82 Calm 30.35 1028 10 16 0.00 0.00

Powered by AerisWeather